This is the latest recevied weather packets stored in our database for station/object KA3ZXO. If no packets are shown the sender has not sent any weather packets the latest 10 day(s).
| Time | Temp. | Humidity | Pressure | Rain* | Wind** | Luminosity | Snow |
|---|---|---|---|---|---|---|---|
| 1777992662 | 22.22° C | 55% | 1013.5 hPa | 0 mm | - | 43 W/m² | - |
| 1777992056 | 21.67° C | 54% | 1013.3 hPa | 0 mm | - | 42 W/m² | - |
| 1777991451 | 21.67° C | 55% | 1013.6 hPa | 0 mm | - | 82 W/m² | - |
| 1777990850 | 21.67° C | 56% | 1013.5 hPa | 0 mm | - | 28 W/m² | - |
| 1777989650 | 20.56° C | 59% | 1013.5 hPa | 0 mm | - | 26 W/m² | - |
| 1777989048 | 20° C | 59% | 1013.5 hPa | 0 mm | - | 26 W/m² | - |
| 1777988448 | 20° C | 59% | 1013.4 hPa | 0 mm | - | 25 W/m² | - |
| 1777987846 | 19.44° C | 61% | 1013.3 hPa | 0 mm | - | 24 W/m² | - |
| 1777987246 | 19.44° C | 61% | 1013.5 hPa | 0 mm | - | 24 W/m² | - |
| 1777986641 | 19.44° C | 61% | 1013.4 hPa | 0 mm | - | 24 W/m² | - |
| 1777986037 | 18.89° C | 62% | 1013.5 hPa | 0 mm | - | 33 W/m² | - |
| 1777985436 | 18.89° C | 62% | 1013.5 hPa | 0 mm | - | 37 W/m² | - |
| 1777984834 | 18.33° C | 63% | 1013.4 hPa | 0 mm | - | 29 W/m² | - |
| 1777984232 | 18.33° C | 64% | 1013.4 hPa | 0 mm | - | 20 W/m² | - |
| 1777983632 | 18.33° C | 65% | 1013.5 hPa | 0 mm | - | 29 W/m² | - |
| 1777983031 | 17.78° C | 65% | 1013.3 hPa | 0 mm | - | 25 W/m² | - |
| 1777982429 | 17.78° C | 67% | 1013.3 hPa | 0 mm | - | 19 W/m² | - |
| 1777981828 | 17.22° C | 68% | 1013.4 hPa | 0 mm | - | 16 W/m² | - |
| 1777981227 | 17.22° C | 69% | 1013.1 hPa | 0 mm | - | 14 W/m² | - |
| 1777980626 | 17.22° C | 69% | 1013 hPa | 0 mm | - | 14 W/m² | - |
| 1777980020 | 16.67° C | 69% | 1013 hPa | 0 mm | - | 16 W/m² | - |
| 1777979416 | 16.67° C | 70% | 1012.9 hPa | 0 mm | - | 16 W/m² | - |
| 1777978816 | 16.67° C | 70% | 1013 hPa | 0 mm | - | 12 W/m² | - |
| 1777978214 | 16.67° C | 70% | 1012.8 hPa | 0 mm | - | 10 W/m² | - |
| 1777977615 | 16.67° C | 70% | 1012.7 hPa | 0 mm | - | 7 W/m² | - |
* Rain latest hour (hover to see other rain measurements)
** Current wind speed in m/s (hover to see current wind gust speed)